Tracking 22079 objects as of 5-Dec-2020
HD Live streaming from Space Station
objects crossing your sky now

OPS 5346

Track OPS 5346 now!
OPS 5346 is classified as:


NORAD ID: 4418
Int'l Code: 1970-046A
Perigee: 35,762.3 km
Apogee: 35,830.0 km
Inclination: 3.3 °
Period: 1,436.2 minutes
Semi major axis: 42167 km
RCS: Unknown
Launch date: June 19, 1970
Source: United States (US)
Launch site: AIR FORCE EASTERN TEST RANGE (AFETR)
aabbcc
Your satellite tracking list
Your tracking list is empty




NASA's NSSDC Master Catalog

Two Line Element Set (TLE):
1 04418U 70046A   20176.80293317 0.00000000  00000-0  00000-0 0    06
2 04418   3.2848 287.5576 0008022 153.3339 206.7192  1.00263281    03
Source of the keplerian elements: McCants